User: anonymous   Login
Location: Mascot Post Office (historical)
(40.2645°N, 99.5462°W)
Time: 17:40:31
(UTC+00:00)
Language:

COSMOS 2455 - Orbit

View from above orbital plane
View from above orbital plane
View from above satellite
View from above satellite

Ground track
Ground track

The orbit data is extracted from the following two-line orbital elements,

1 36095U 09063A   20262.85612777 -.00000034 +00000-0 +29633-4 0  9991
2 36095 067.1482 312.0947 0009119 268.4623 091.5417 13.96770384552355
Epoch (UTC): 18 September 2020 20:32:49
Eccentricity: 0.0009119
inclination: 67.1482°
perigee height: 898 km
apogee height: 911 km
right ascension of ascending node: 312.0947°
argument of perigee: 268.4623°
revolutions per day: 13.96770384
mean anomaly at epoch: 91.5417°
orbit number at epoch: 55235

The dashed part of the orbit path shows where the satellite is in the earth's shadow,  

DLR